Time,TemperatureF,DewpointF,PressureIn,WindDirection,WindDirectionDegrees,WindSpeedMPH,WindSpeedGustMPH,Humidity,HourlyPrecipIn,Conditions,Clouds,dailyrainin,SoftwareType,DateUTC
2013-01-03 00:02:00,23.2,18.3,30.10,SSW,203,0.0,1.8,81,0.00,,,0.00,WUHU216HW,2013-01-03 05:02:00,
2013-01-03 00:07:00,23.0,18.4,30.10,SE,135,0.4,1.1,82,0.00,,,0.00,WUHU216HW,2013-01-03 05:07:00,
2013-01-03 00:12:00,23.0,18.4,30.10,SW,225,0.4,1.6,82,0.00,,,0.00,WUHU216HW,2013-01-03 05:12:00,
2013-01-03 00:17:00,23.0,18.4,30.10,SSW,203,0.7,3.4,82,0.00,,,0.00,WUHU216HW,2013-01-03 05:17:00,
2013-01-03 00:22:00,23.0,18.4,30.10,ESE,113,0.2,3.4,82,0.00,,,0.00,WUHU216HW,2013-01-03 05:22:00,
2013-01-03 00:27:00,23.0,18.4,30.10,ESE,113,0.0,4.3,82,0.00,,,0.00,WUHU216HW,2013-01-03 05:27:00,
2013-01-03 00:32:00,23.0,18.4,30.10,SSW,203,1.1,4.3,82,0.00,,,0.00,WUHU216HW,2013-01-03 05:32:00,
2013-01-03 00:37:00,23.0,18.4,30.11,WSW,248,1.3,1.8,82,0.00,,,0.00,WUHU216HW,2013-01-03 05:37:00,
2013-01-03 00:42:00,23.0,18.4,30.10,SSW,203,1.1,1.8,82,0.00,,,0.00,WUHU216HW,2013-01-03 05:42:00,
2013-01-03 00:47:00,22.9,18.2,30.10,SW,225,0.9,1.1,82,0.00,,,0.00,WUHU216HW,2013-01-03 05:47:00,
2013-01-03 00:52:00,22.9,18.2,30.10,ESE,113,0.0,1.3,82,0.00,,,0.00,WUHU216HW,2013-01-03 05:52:00,
2013-01-03 00:57:00,22.9,18.2,30.11,SSE,158,0.4,1.3,82,0.00,,,0.00,WUHU216HW,2013-01-03 05:57:00,
2013-01-03 01:02:00,22.9,18.2,30.10,SW,225,0.0,1.1,82,0.00,,,0.00,WUHU216HW,2013-01-03 06:02:00,
2013-01-03 01:07:00,22.9,18.2,30.10,SE,135,0.7,1.1,82,0.00,,,0.00,WUHU216HW,2013-01-03 06:07:00,
2013-01-03 01:12:00,22.7,18.0,30.10,SSW,203,0.7,1.3,82,0.00,,,0.00,WUHU216HW,2013-01-03 06:12:00,
2013-01-03 01:17:00,22.7,18.0,30.10,SE,135,1.1,2.9,82,0.00,,,0.00,WUHU216HW,2013-01-03 06:17:00,
2013-01-03 01:22:00,22.5,17.8,30.10,WSW,248,0.2,2.9,82,0.00,,,0.00,WUHU216HW,2013-01-03 06:22:00,
2013-01-03 01:27:00,22.5,17.8,30.10,SSE,158,0.9,2.0,82,0.00,,,0.00,WUHU216HW,2013-01-03 06:27:00,
2013-01-03 01:32:00,22.3,17.6,30.10,SSW,203,0.7,1.8,82,0.00,,,0.00,WUHU216HW,2013-01-03 06:32:00,
2013-01-03 01:37:00,22.0,17.3,30.10,SSE,158,0.2,2.5,82,0.00,,,0.00,WUHU216HW,2013-01-03 06:37:00,
2013-01-03 01:42:00,21.8,17.1,30.10,South,180,1.1,2.5,82,0.00,,,0.00,WUHU216HW,2013-01-03 06:42:00,
2013-01-03 01:47:00,21.6,16.9,30.09,South,180,0.7,2.0,82,0.00,,,0.00,WUHU216HW,2013-01-03 06:47:00,
2013-01-03 01:52:00,21.2,16.6,30.10,SE,135,1.1,1.8,82,0.00,,,0.00,WUHU216HW,2013-01-03 06:52:00,
2013-01-03 01:57:00,21.2,16.6,30.10,NW,315,0.2,1.8,82,0.00,,,0.00,WUHU216HW,2013-01-03 06:57:00,
2013-01-03 02:02:00,21.1,16.4,30.10,NNW,338,0.0,2.2,82,0.00,,,0.00,WUHU216HW,2013-01-03 07:02:00,
2013-01-03 02:07:00,20.9,16.2,30.10,SSE,158,0.7,2.2,82,0.00,,,0.00,WUHU216HW,2013-01-03 07:07:00,
2013-01-03 02:12:00,20.7,16.0,30.10,SSW,203,0.4,1.3,82,0.00,,,0.00,WUHU216HW,2013-01-03 07:12:00,
2013-01-03 02:17:00,20.5,15.8,30.10,SSW,203,0.9,1.3,82,0.00,,,0.00,WUHU216HW,2013-01-03 07:17:00,
2013-01-03 02:22:00,20.2,15.5,30.10,NNW,338,0.2,1.1,82,0.00,,,0.00,WUHU216HW,2013-01-03 07:22:00,
2013-01-03 02:27:00,20.2,15.5,30.10,SE,135,0.0,1.1,82,0.00,,,0.00,WUHU216HW,2013-01-03 07:27:00,
2013-01-03 02:32:00,19.8,15.4,30.10,SSE,158,0.0,0.4,83,0.00,,,0.00,WUHU216HW,2013-01-03 07:32:00,
2013-01-03 02:37:00,19.8,15.4,30.10,East,90,0.7,0.7,83,0.00,,,0.00,WUHU216HW,2013-01-03 07:37:00,
2013-01-03 02:42:00,19.4,14.8,30.10,NNW,338,0.4,1.8,82,0.00,,,0.00,WUHU216HW,2013-01-03 07:42:00,
2013-01-03 02:47:00,19.3,14.6,30.10,SSW,203,0.4,1.8,82,0.00,,,0.00,WUHU216HW,2013-01-03 07:47:00,
2013-01-03 02:52:00,19.1,14.4,30.10,SE,135,0.4,1.1,82,0.00,,,0.00,WUHU216HW,2013-01-03 07:52:00,
2013-01-03 02:57:00,19.1,14.4,30.10,SE,135,0.7,0.7,82,0.00,,,0.00,WUHU216HW,2013-01-03 07:57:00,
2013-01-03 03:02:00,18.9,14.2,30.10,SE,135,0.7,0.7,82,0.00,,,0.00,WUHU216HW,2013-01-03 08:02:00,
2013-01-03 03:07:00,18.7,14.0,30.10,SSE,158,0.7,1.1,82,0.00,,,0.00,WUHU216HW,2013-01-03 08:07:00,
2013-01-03 03:12:00,18.7,14.0,30.10,SSE,158,0.0,1.1,82,0.00,,,0.00,WUHU216HW,2013-01-03 08:12:00,
2013-01-03 03:17:00,18.5,13.9,30.10,SSE,158,0.9,1.1,82,0.00,,,0.00,WUHU216HW,2013-01-03 08:17:00,
2013-01-03 03:22:00,18.4,13.7,30.10,SE,135,0.2,1.6,82,0.00,,,0.00,WUHU216HW,2013-01-03 08:22:00,
2013-01-03 03:27:00,18.4,13.7,30.09,South,180,0.7,1.8,82,0.00,,,0.00,WUHU216HW,2013-01-03 08:27:00,
2013-01-03 03:32:00,18.4,13.7,30.08,SSW,203,0.7,1.8,82,0.00,,,0.00,WUHU216HW,2013-01-03 08:32:00,
2013-01-03 03:37:00,18.4,13.7,30.09,SSW,203,0.0,1.3,82,0.00,,,0.00,WUHU216HW,2013-01-03 08:37:00,
2013-01-03 03:42:00,18.2,13.5,30.08,SSW,203,0.4,1.6,82,0.00,,,0.00,WUHU216HW,2013-01-03 08:42:00,
2013-01-03 03:47:00,18.4,13.7,30.08,South,180,0.2,1.6,82,0.00,,,0.00,WUHU216HW,2013-01-03 08:47:00,
2013-01-03 03:52:00,18.2,13.5,30.08,SE,135,0.4,2.0,82,0.00,,,0.00,WUHU216HW,2013-01-03 08:52:00,
2013-01-03 03:57:00,18.0,13.3,30.07,SE,135,0.0,2.0,82,0.00,,,0.00,WUHU216HW,2013-01-03 08:57:00,
2013-01-03 04:02:00,17.8,13.1,30.07,SSW,203,0.2,1.8,82,0.00,,,0.00,WUHU216HW,2013-01-03 09:02:00,
2013-01-03 04:07:00,17.6,12.7,30.07,East,90,0.0,1.8,81,0.00,,,0.00,WUHU216HW,2013-01-03 09:07:00,
2013-01-03 04:12:00,17.5,12.5,30.07,SE,135,0.0,0.7,81,0.00,,,0.00,WUHU216HW,2013-01-03 09:12:00,
2013-01-03 04:17:00,17.3,12.3,30.07,SE,135,0.4,1.1,81,0.00,,,0.00,WUHU216HW,2013-01-03 09:17:00,
2013-01-03 04:22:00,17.1,12.3,30.07,NNW,338,0.0,1.1,81,0.00,,,0.00,WUHU216HW,2013-01-03 09:22:00,
2013-01-03 04:27:00,16.9,12.1,30.07,SE,135,0.0,1.1,81,0.00,,,0.00,WUHU216HW,2013-01-03 09:27:00,
2013-01-03 04:32:00,16.9,12.1,30.07,WSW,248,0.9,1.1,81,0.00,,,0.00,WUHU216HW,2013-01-03 09:32:00,
2013-01-03 04:37:00,16.9,12.1,30.07,SSE,158,0.4,1.8,81,0.00,,,0.00,WUHU216HW,2013-01-03 09:37:00,
2013-01-03 04:42:00,17.1,12.3,30.06,South,180,0.7,1.8,81,0.00,,,0.00,WUHU216HW,2013-01-03 09:42:00,
2013-01-03 04:47:00,17.3,12.1,30.07,ESE,113,0.4,2.5,80,0.00,,,0.00,WUHU216HW,2013-01-03 09:47:00,
2013-01-03 04:52:00,17.3,11.8,30.06,North,0,0.2,2.5,79,0.00,,,0.00,WUHU216HW,2013-01-03 09:52:00,
2013-01-03 04:57:00,17.5,12.0,30.06,ESE,113,1.3,1.8,79,0.00,,,0.00,WUHU216HW,2013-01-03 09:57:00,
2013-01-03 05:02:00,17.5,12.0,30.05,WSW,248,0.4,2.2,79,0.00,,,0.00,WUHU216HW,2013-01-03 10:02:00,
2013-01-03 05:07:00,17.6,12.2,30.05,ESE,113,0.2,2.2,79,0.00,,,0.00,WUHU216HW,2013-01-03 10:07:00,
2013-01-03 05:12:00,17.6,12.2,30.05,ENE,68,0.2,1.3,79,0.00,,,0.00,WUHU216HW,2013-01-03 10:12:00,
2013-01-03 05:17:00,17.6,12.2,30.05,SE,135,1.1,2.0,79,0.00,,,0.00,WUHU216HW,2013-01-03 10:17:00,
2013-01-03 05:22:00,17.6,12.2,30.05,NNW,338,0.0,2.0,79,0.00,,,0.00,WUHU216HW,2013-01-03 10:22:00,
2013-01-03 05:27:00,17.6,12.2,30.05,SE,135,0.0,1.3,79,0.00,,,0.00,WUHU216HW,2013-01-03 10:27:00,
2013-01-03 05:32:00,17.5,12.0,30.05,ESE,113,0.0,0.7,79,0.00,,,0.00,WUHU216HW,2013-01-03 10:32:00,
2013-01-03 05:37:00,17.6,11.9,30.05,ENE,68,0.4,1.1,78,0.00,,,0.00,WUHU216HW,2013-01-03 10:37:00,
2013-01-03 05:42:00,17.5,11.7,30.05,South,180,0.2,1.1,78,0.00,,,0.00,WUHU216HW,2013-01-03 10:42:00,
2013-01-03 05:47:00,17.5,11.7,30.05,NE,45,0.4,1.1,78,0.00,,,0.00,WUHU216HW,2013-01-03 10:47:00,
2013-01-03 05:52:00,17.5,11.7,30.05,NW,315,0.2,1.6,78,0.00,,,0.00,WUHU216HW,2013-01-03 10:52:00,
2013-01-03 05:57:00,17.6,11.9,30.05,SSW,203,0.4,1.6,78,0.00,,,0.00,WUHU216HW,2013-01-03 10:57:00,
2013-01-03 06:02:00,17.6,11.9,30.05,NNW,338,0.4,1.1,78,0.00,,,0.00,WUHU216HW,2013-01-03 11:02:00,
2013-01-03 06:07:00,17.6,11.9,30.05,WSW,248,1.1,1.8,78,0.00,,,0.00,WUHU216HW,2013-01-03 11:07:00,
2013-01-03 06:12:00,17.6,11.5,30.05,SSE,158,0.0,1.8,77,0.00,,,0.00,WUHU216HW,2013-01-03 11:12:00,
2013-01-03 06:17:00,17.5,11.4,30.05,NW,315,0.2,1.3,77,0.00,,,0.00,WUHU216HW,2013-01-03 11:17:00,
2013-01-03 06:22:00,17.6,11.5,30.04,SE,135,0.2,1.3,77,0.00,,,0.00,WUHU216HW,2013-01-03 11:22:00,
2013-01-03 06:27:00,17.6,11.5,30.05,SE,135,0.4,0.9,77,0.00,,,0.00,WUHU216HW,2013-01-03 11:27:00,
2013-01-03 06:32:00,17.6,11.5,30.04,SSW,203,0.0,0.9,77,0.00,,,0.00,WUHU216HW,2013-01-03 11:32:00,
2013-01-03 06:37:00,17.6,11.5,30.04,SE,135,0.0,0.9,77,0.00,,,0.00,WUHU216HW,2013-01-03 11:37:00,
2013-01-03 06:42:00,17.6,11.5,30.04,SW,225,1.1,1.1,77,0.00,,,0.00,WUHU216HW,2013-01-03 11:42:00,
2013-01-03 06:47:00,17.6,11.3,30.04,NNW,338,0.2,1.1,76,0.00,,,0.00,WUHU216HW,2013-01-03 11:47:00,
2013-01-03 06:52:00,17.5,11.1,30.04,SW,225,1.1,1.1,76,0.00,,,0.00,WUHU216HW,2013-01-03 11:52:00,
2013-01-03 06:57:00,17.5,11.1,30.04,South,180,1.8,2.5,76,0.00,,,0.00,WUHU216HW,2013-01-03 11:57:00,
2013-01-03 07:02:00,17.6,11.5,30.03,SSW,203,0.0,2.5,77,0.00,,,0.00,WUHU216HW,2013-01-03 12:02:00,
2013-01-03 07:07:00,17.6,11.5,30.03,NW,315,0.4,2.2,77,0.00,,,0.00,WUHU216HW,2013-01-03 12:07:00,
2013-01-03 07:12:00,17.6,11.3,30.03,West,270,0.0,2.2,76,0.00,,,0.00,WUHU216HW,2013-01-03 12:12:00,
2013-01-03 07:17:00,17.6,11.3,30.04,SSE,158,0.2,1.6,76,0.00,,,0.00,WUHU216HW,2013-01-03 12:17:00,
2013-01-03 07:22:00,17.6,11.3,30.03,SE,135,0.9,1.1,76,0.00,,,0.00,WUHU216HW,2013-01-03 12:22:00,
2013-01-03 07:27:00,17.6,11.3,30.03,South,180,0.0,1.1,76,0.00,,,0.00,WUHU216HW,2013-01-03 12:27:00,
2013-01-03 07:32:00,17.6,11.3,30.03,SSW,203,0.0,0.7,76,0.00,,,0.00,WUHU216HW,2013-01-03 12:32:00,
2013-01-03 07:37:00,17.6,11.3,30.03,SSW,203,0.2,2.0,76,0.00,,,0.00,WUHU216HW,2013-01-03 12:37:00,
2013-01-03 07:42:00,17.6,11.3,30.03,NNW,338,0.0,2.0,76,0.00,,,0.00,WUHU216HW,2013-01-03 12:42:00,
2013-01-03 07:47:00,17.6,11.3,30.04,NE,45,0.0,1.1,76,0.00,,,0.00,WUHU216HW,2013-01-03 12:47:00,
2013-01-03 07:52:00,17.6,11.3,30.03,North,0,1.3,1.8,76,0.00,,,0.00,WUHU216HW,2013-01-03 12:52:00,
2013-01-03 07:57:00,17.6,11.3,30.03,WSW,248,0.0,1.8,76,0.00,,,0.00,WUHU216HW,2013-01-03 12:57:00,
2013-01-03 08:02:00,17.6,11.3,30.03,South,180,0.2,1.3,76,0.00,,,0.00,WUHU216HW,2013-01-03 13:02:00,
2013-01-03 08:07:00,17.6,11.3,30.03,NNW,338,0.0,1.1,76,0.00,,,0.00,WUHU216HW,2013-01-03 13:07:00,
2013-01-03 08:12:00,17.6,11.3,30.02,WSW,248,0.0,1.1,76,0.00,,,0.00,WUHU216HW,2013-01-03 13:12:00,
2013-01-03 08:17:00,17.6,11.3,30.03,SW,225,0.0,1.3,76,0.00,,,0.00,WUHU216HW,2013-01-03 13:17:00,
2013-01-03 08:22:00,17.6,11.3,30.03,SW,225,1.3,1.3,76,0.00,,,0.00,WUHU216HW,2013-01-03 13:22:00,
2013-01-03 08:27:00,17.6,11.3,30.03,ESE,113,1.1,1.6,76,0.00,,,0.00,WUHU216HW,2013-01-03 13:27:00,
2013-01-03 08:32:00,17.6,11.3,30.03,SSW,203,0.0,1.6,76,0.00,,,0.00,WUHU216HW,2013-01-03 13:32:00,
2013-01-03 08:37:00,17.6,11.3,30.03,SE,135,0.4,1.8,76,0.00,,,0.00,WUHU216HW,2013-01-03 13:37:00,
2013-01-03 08:43:00,17.6,11.3,30.03,SE,135,0.2,1.8,76,0.00,,,0.00,WUHU216HW,2013-01-03 13:43:00,
2013-01-03 08:48:00,17.6,11.3,30.03,ENE,68,0.0,2.2,76,0.00,,,0.00,WUHU216HW,2013-01-03 13:48:00,
2013-01-03 08:53:00,17.8,11.4,30.03,WNW,293,0.7,2.2,76,0.00,,,0.00,WUHU216HW,2013-01-03 13:53:00,
2013-01-03 08:58:00,17.8,11.4,30.04,SE,135,0.0,1.8,76,0.00,,,0.00,WUHU216HW,2013-01-03 13:58:00,
2013-01-03 09:03:00,18.0,11.6,30.04,South,180,0.2,1.8,76,0.00,,,0.00,WUHU216HW,2013-01-03 14:03:00,
2013-01-03 09:08:00,18.0,11.6,30.04,SSW,203,1.8,1.8,76,0.00,,,0.00,WUHU216HW,2013-01-03 14:08:00,
2013-01-03 09:13:00,18.2,11.8,30.04,WSW,248,1.8,2.7,76,0.00,,,0.00,WUHU216HW,2013-01-03 14:13:00,
2013-01-03 09:18:00,18.2,11.8,30.04,SW,225,0.0,2.7,76,0.00,,,0.00,WUHU216HW,2013-01-03 14:18:00,
2013-01-03 09:23:00,18.4,12.0,30.04,SW,225,0.7,3.8,76,0.00,,,0.00,WUHU216HW,2013-01-03 14:23:00,
2013-01-03 09:28:00,18.7,12.3,30.04,NW,315,0.0,3.8,76,0.00,,,0.00,WUHU216HW,2013-01-03 14:28:00,
2013-01-03 09:33:00,18.9,12.5,30.04,West,270,0.0,1.8,76,0.00,,,0.00,WUHU216HW,2013-01-03 14:33:00,
2013-01-03 09:38:00,19.1,12.7,30.04,SSE,158,0.0,1.6,76,0.00,,,0.00,WUHU216HW,2013-01-03 14:38:00,
2013-01-03 09:43:00,19.3,12.8,30.04,West,270,0.0,1.8,76,0.00,,,0.00,WUHU216HW,2013-01-03 14:43:00,
2013-01-03 09:48:00,19.4,13.0,30.04,WSW,248,0.0,1.8,76,0.00,,,0.00,WUHU216HW,2013-01-03 14:48:00,
2013-01-03 09:53:00,19.8,13.1,30.04,WNW,293,1.6,3.1,75,0.00,,,0.00,WUHU216HW,2013-01-03 14:53:00,
2013-01-03 09:58:00,20.0,13.5,30.04,WSW,248,0.4,3.1,76,0.00,,,0.00,WUHU216HW,2013-01-03 14:58:00,
2013-01-03 10:03:00,20.3,13.9,30.04,SW,225,0.4,1.8,76,0.00,,,0.00,WUHU216HW,2013-01-03 15:03:00,
2013-01-03 10:08:00,20.5,14.0,30.04,NW,315,0.7,2.2,76,0.00,,,0.00,WUHU216HW,2013-01-03 15:08:00,
2013-01-03 10:13:00,21.1,14.6,30.04,WNW,293,0.2,2.2,76,0.00,,,0.00,WUHU216HW,2013-01-03 15:13:00,
2013-01-03 10:18:00,21.2,15.1,30.05,South,180,0.4,2.2,77,0.00,,,0.00,WUHU216HW,2013-01-03 15:18:00,
2013-01-03 10:23:00,21.6,15.5,30.04,East,90,1.1,2.2,77,0.00,,,0.00,WUHU216HW,2013-01-03 15:23:00,
2013-01-03 10:28:00,21.8,15.7,30.05,South,180,1.8,2.9,77,0.00,,,0.00,WUHU216HW,2013-01-03 15:28:00,
2013-01-03 10:33:00,22.0,15.9,30.05,WSW,248,0.9,2.9,77,0.00,,,0.00,WUHU216HW,2013-01-03 15:33:00,
2013-01-03 10:38:00,22.3,16.2,30.05,SW,225,3.4,3.4,77,0.00,,,0.00,WUHU216HW,2013-01-03 15:38:00,
2013-01-03 10:43:00,22.3,16.2,30.05,ENE,68,1.3,3.4,77,0.00,,,0.00,WUHU216HW,2013-01-03 15:43:00,
2013-01-03 10:48:00,22.5,16.4,30.05,WNW,293,1.1,3.4,77,0.00,,,0.00,WUHU216HW,2013-01-03 15:48:00,
2013-01-03 10:53:00,22.7,16.6,30.05,West,270,1.1,2.5,77,0.00,,,0.00,WUHU216HW,2013-01-03 15:53:00,
2013-01-03 10:58:00,22.7,16.2,30.05,SSW,203,0.4,3.4,76,0.00,,,0.00,WUHU216HW,2013-01-03 15:58:00,
2013-01-03 11:03:00,22.9,16.8,30.05,NW,315,0.9,3.4,77,0.00,,,0.00,WUHU216HW,2013-01-03 16:03:00,
2013-01-03 11:08:00,23.0,16.6,30.05,West,270,4.5,4.5,76,0.00,,,0.00,WUHU216HW,2013-01-03 16:08:00,
2013-01-03 11:13:00,23.0,16.6,30.05,WNW,293,1.8,4.5,76,0.00,,,0.00,WUHU216HW,2013-01-03 16:13:00,
2013-01-03 11:18:00,22.9,16.8,30.04,WSW,248,1.1,4.5,77,0.00,,,0.00,WUHU216HW,2013-01-03 16:18:00,
2013-01-03 11:23:00,22.9,16.8,30.04,NW,315,0.7,2.0,77,0.00,,,0.00,WUHU216HW,2013-01-03 16:23:00,
2013-01-03 11:28:00,23.2,17.1,30.03,SW,225,0.9,2.0,77,0.00,,,0.00,WUHU216HW,2013-01-03 16:28:00,
2013-01-03 11:33:00,23.4,17.3,30.03,West,270,1.8,2.9,77,0.00,,,0.00,WUHU216HW,2013-01-03 16:33:00,
2013-01-03 11:38:00,23.4,17.3,30.03,NNE,23,1.8,4.0,77,0.00,,,0.00,WUHU216HW,2013-01-03 16:38:00,
2013-01-03 11:43:00,23.4,17.3,30.02,WNW,293,1.8,4.0,77,0.00,,,0.00,WUHU216HW,2013-01-03 16:43:00,
2013-01-03 11:48:00,23.6,17.5,30.02,NW,315,1.8,3.4,77,0.00,,,0.00,WUHU216HW,2013-01-03 16:48:00,
2013-01-03 11:53:00,23.9,18.1,30.02,WSW,248,1.8,2.5,78,0.00,,,0.00,WUHU216HW,2013-01-03 16:53:00,
2013-01-03 11:58:00,24.1,17.9,30.02,WNW,293,0.4,2.2,77,0.00,,,0.00,WUHU216HW,2013-01-03 16:58:00,
2013-01-03 12:03:00,24.1,17.9,30.01,SW,225,1.8,1.8,77,0.00,,,0.00,WUHU216HW,2013-01-03 17:03:00,
2013-01-03 12:08:00,24.3,18.1,30.01,SSW,203,1.8,2.9,77,0.00,,,0.00,WUHU216HW,2013-01-03 17:08:00,
2013-01-03 12:13:00,24.3,18.1,30.01,WSW,248,0.0,2.9,77,0.00,,,0.00,WUHU216HW,2013-01-03 17:13:00,
2013-01-03 12:18:00,24.5,18.3,30.01,SE,135,1.6,3.6,77,0.00,,,0.00,WUHU216HW,2013-01-03 17:18:00,
2013-01-03 12:23:00,24.7,18.5,30.01,WNW,293,1.1,3.6,77,0.00,,,0.00,WUHU216HW,2013-01-03 17:23:00,
2013-01-03 12:28:00,24.8,19.0,30.01,NNW,338,2.2,2.2,78,0.00,,,0.00,WUHU216HW,2013-01-03 17:28:00,
2013-01-03 12:33:00,25.0,19.2,30.01,WNW,293,2.9,3.4,78,0.00,,,0.00,WUHU216HW,2013-01-03 17:33:00,
2013-01-03 12:38:00,25.0,19.2,30.01,WSW,248,1.1,3.4,78,0.00,,,0.00,WUHU216HW,2013-01-03 17:38:00,
2013-01-03 12:43:00,25.4,19.4,30.01,NNW,338,0.4,3.4,78,0.00,,,0.00,WUHU216HW,2013-01-03 17:43:00,
2013-01-03 12:48:00,25.4,19.4,30.01,WNW,293,1.8,3.1,78,0.00,,,0.00,WUHU216HW,2013-01-03 17:48:00,
2013-01-03 12:53:00,25.6,19.6,30.01,SW,225,1.3,3.1,78,0.00,,,0.00,WUHU216HW,2013-01-03 17:53:00,
2013-01-03 12:58:00,25.6,19.6,30.01,WSW,248,2.2,3.4,78,0.00,,,0.00,WUHU216HW,2013-01-03 17:58:00,
2013-01-03 13:03:00,25.6,19.6,30.00,NW,315,1.1,3.4,78,0.00,,,0.00,WUHU216HW,2013-01-03 18:03:00,
2013-01-03 13:08:00,25.7,20.1,30.00,NW,315,0.9,3.4,79,0.00,,,0.00,WUHU216HW,2013-01-03 18:08:00,
2013-01-03 13:13:00,25.9,20.3,30.00,NNW,338,1.1,3.4,79,0.00,,,0.00,WUHU216HW,2013-01-03 18:13:00,
2013-01-03 13:18:00,26.3,20.6,30.00,SSW,203,0.4,2.5,79,0.00,,,0.00,WUHU216HW,2013-01-03 18:18:00,
2013-01-03 13:23:00,26.3,20.6,30.00,North,0,0.0,2.5,79,0.00,,,0.00,WUHU216HW,2013-01-03 18:23:00,
2013-01-03 13:28:00,26.3,20.6,30.00,WSW,248,0.4,2.5,79,0.00,,,0.00,WUHU216HW,2013-01-03 18:28:00,
2013-01-03 13:33:00,26.5,20.8,30.00,NW,315,1.1,2.5,79,0.00,,,0.00,WUHU216HW,2013-01-03 18:33:00,
2013-01-03 13:38:00,26.5,20.8,30.00,South,180,0.0,2.5,79,0.00,,,0.00,WUHU216HW,2013-01-03 18:38:00,
2013-01-03 13:43:00,26.6,21.0,30.00,NNW,338,0.9,2.2,79,0.00,,,0.00,WUHU216HW,2013-01-03 18:43:00,
2013-01-03 13:48:00,26.8,21.2,30.00,SW,225,0.9,1.1,79,0.00,,,0.00,WUHU216HW,2013-01-03 18:48:00,
2013-01-03 13:53:00,27.0,21.3,29.99,SSW,203,0.0,1.1,79,0.00,,,0.00,WUHU216HW,2013-01-03 18:53:00,
2013-01-03 13:58:00,27.0,21.3,29.99,NW,315,0.9,1.6,79,0.00,,,0.00,WUHU216HW,2013-01-03 18:58:00,
2013-01-03 14:03:00,27.4,22.0,30.00,NW,315,0.4,2.7,80,0.00,,,0.00,WUHU216HW,2013-01-03 19:03:00,
2013-01-03 14:08:00,27.4,22.0,30.00,WNW,293,0.4,2.7,80,0.00,,,0.00,WUHU216HW,2013-01-03 19:08:00,
2013-01-03 14:13:00,27.2,22.3,30.00,South,180,1.1,4.7,82,0.00,,,0.00,WUHU216HW,2013-01-03 19:13:00,
2013-01-03 14:18:00,27.4,22.5,30.00,West,270,1.1,4.7,82,0.00,,,0.00,WUHU216HW,2013-01-03 19:18:00,
2013-01-03 14:55:00,27.7,23.2,30.01,WNW,293,1.6,4.3,83,0.00,,,0.00,WUHU216HW,2013-01-03 19:55:00,
2013-01-03 15:00:00,27.7,23.2,30.01,WSW,248,2.0,4.3,83,0.00,,,0.00,WUHU216HW,2013-01-03 20:00:00,
2013-01-03 15:05:00,27.7,23.2,30.01,NNW,338,2.9,4.0,83,0.00,,,0.00,WUHU216HW,2013-01-03 20:05:00,
2013-01-03 15:10:00,27.9,23.4,30.02,WNW,293,1.8,4.0,83,0.00,,,0.00,WUHU216HW,2013-01-03 20:10:00,
2013-01-03 15:15:00,27.9,23.7,30.02,WSW,248,0.7,4.0,84,0.00,,,0.00,WUHU216HW,2013-01-03 20:15:00,
2013-01-03 15:20:00,27.9,23.4,30.02,NNW,338,0.9,4.0,83,0.00,,,0.00,WUHU216HW,2013-01-03 20:20:00,
2013-01-03 15:25:00,27.9,23.7,30.02,NW,315,1.1,6.0,84,0.00,,,0.00,WUHU216HW,2013-01-03 20:25:00,
2013-01-03 15:30:00,28.1,23.6,30.02,West,270,1.1,6.0,83,0.00,,,0.00,WUHU216HW,2013-01-03 20:30:00,
2013-01-03 15:35:00,28.1,23.6,30.02,NW,315,0.9,4.7,83,0.00,,,0.00,WUHU216HW,2013-01-03 20:35:00,
2013-01-03 15:40:00,28.1,23.9,30.02,West,270,5.4,5.4,84,0.00,,,0.00,WUHU216HW,2013-01-03 20:40:00,
2013-01-03 15:45:00,28.1,23.9,30.02,West,270,0.9,5.4,84,0.00,,,0.00,WUHU216HW,2013-01-03 20:45:00,
2013-01-03 15:50:00,28.1,23.9,30.02,NW,315,0.7,4.5,84,0.00,,,0.00,WUHU216HW,2013-01-03 20:50:00,
2013-01-03 15:55:00,28.3,24.3,30.02,NNW,338,1.6,4.5,85,0.00,,,0.00,WUHU216HW,2013-01-03 20:55:00,
2013-01-03 16:00:00,28.1,23.9,30.02,WSW,248,2.0,4.3,84,0.00,,,0.00,WUHU216HW,2013-01-03 21:00:00,
2013-01-03 16:05:00,28.1,24.1,30.03,West,270,1.8,4.3,85,0.00,,,0.00,WUHU216HW,2013-01-03 21:05:00,
2013-01-03 16:10:00,28.1,24.1,30.03,WNW,293,3.4,4.3,85,0.00,,,0.00,WUHU216HW,2013-01-03 21:10:00,
2013-01-03 16:15:00,28.1,23.9,30.03,NW,315,1.6,3.6,84,0.00,,,0.00,WUHU216HW,2013-01-03 21:15:00,
2013-01-03 16:20:00,28.1,24.1,30.03,NW,315,3.1,4.3,85,0.00,,,0.00,WUHU216HW,2013-01-03 21:20:00,
2013-01-03 16:25:00,28.1,24.1,30.03,West,270,0.7,5.4,85,0.00,,,0.00,WUHU216HW,2013-01-03 21:25:00,
2013-01-03 16:30:00,28.1,24.1,30.03,NNW,338,1.6,5.4,85,0.00,,,0.00,WUHU216HW,2013-01-03 21:30:00,
2013-01-03 16:35:00,28.1,24.1,30.03,NW,315,2.5,4.7,85,0.00,,,0.00,WUHU216HW,2013-01-03 21:35:00,
2013-01-03 16:40:00,28.1,24.1,30.04,NNW,338,0.2,4.7,85,0.00,,,0.00,WUHU216HW,2013-01-03 21:40:00,
2013-01-03 16:45:00,28.1,24.1,30.04,WNW,293,1.1,3.6,85,0.00,,,0.00,WUHU216HW,2013-01-03 21:45:00,
2013-01-03 16:50:00,28.1,24.1,30.04,WNW,293,1.8,3.6,85,0.00,,,0.00,WUHU216HW,2013-01-03 21:50:00,
2013-01-03 16:55:00,28.1,24.1,30.04,WSW,248,1.3,2.9,85,0.00,,,0.00,WUHU216HW,2013-01-03 21:55:00,
2013-01-03 17:00:00,28.1,24.1,30.05,SW,225,3.4,3.6,85,0.00,,,0.00,WUHU216HW,2013-01-03 22:00:00,
2013-01-03 17:05:00,28.1,24.1,30.05,NNW,338,1.1,3.6,85,0.00,,,0.00,WUHU216HW,2013-01-03 22:05:00,
2013-01-03 17:10:00,28.1,24.1,30.05,WNW,293,2.7,4.0,85,0.00,,,0.00,WUHU216HW,2013-01-03 22:10:00,
2013-01-03 17:15:00,28.3,24.6,30.05,West,270,1.1,4.0,86,0.00,,,0.00,WUHU216HW,2013-01-03 22:15:00,
2013-01-03 17:20:00,28.3,24.6,30.05,West,270,0.2,3.6,86,0.00,,,0.00,WUHU216HW,2013-01-03 22:20:00,
2013-01-03 17:25:00,28.3,24.6,30.05,West,270,1.1,3.4,86,0.00,,,0.00,WUHU216HW,2013-01-03 22:25:00,
2013-01-03 17:30:00,28.3,24.6,30.05,North,0,1.6,3.4,86,0.00,,,0.00,WUHU216HW,2013-01-03 22:30:00,
2013-01-03 17:35:00,28.3,24.8,30.06,SSW,203,2.5,3.4,87,0.00,,,0.00,WUHU216HW,2013-01-03 22:35:00,
2013-01-03 17:40:00,28.3,24.8,30.06,WSW,248,0.7,3.6,87,0.00,,,0.00,WUHU216HW,2013-01-03 22:40:00,
2013-01-03 17:45:00,28.4,24.8,30.06,West,270,2.0,3.6,86,0.00,,,0.00,WUHU216HW,2013-01-03 22:45:00,
2013-01-03 17:50:00,28.4,24.8,30.07,NW,315,1.6,2.5,86,0.00,,,0.00,WUHU216HW,2013-01-03 22:50:00,
2013-01-03 17:55:00,28.4,24.8,30.07,West,270,1.1,4.0,86,0.00,,,0.00,WUHU216HW,2013-01-03 22:55:00,
2013-01-03 18:00:00,28.4,25.0,30.07,WSW,248,1.1,4.0,87,0.00,,,0.00,WUHU216HW,2013-01-03 23:00:00,
2013-01-03 18:05:00,28.4,24.8,30.07,NW,315,0.4,3.6,86,0.00,,,0.00,WUHU216HW,2013-01-03 23:05:00,
2013-01-03 18:10:00,28.4,25.0,30.07,West,270,1.8,3.8,87,0.00,,,0.00,WUHU216HW,2013-01-03 23:10:00,
2013-01-03 18:15:00,28.4,24.8,30.07,NW,315,0.9,3.8,86,0.00,,,0.00,WUHU216HW,2013-01-03 23:15:00,
2013-01-03 18:20:00,28.4,24.8,30.07,NNW,338,1.1,2.9,86,0.00,,,0.00,WUHU216HW,2013-01-03 23:20:00,
2013-01-03 18:25:00,28.4,24.8,30.07,NNW,338,2.5,4.5,86,0.00,,,0.00,WUHU216HW,2013-01-03 23:25:00,
2013-01-03 18:30:00,28.6,25.2,30.07,WNW,293,0.9,4.5,87,0.00,,,0.00,WUHU216HW,2013-01-03 23:30:00,
2013-01-03 18:35:00,28.6,25.2,30.08,NW,315,2.2,4.9,87,0.00,,,0.00,WUHU216HW,2013-01-03 23:35:00,
2013-01-03 18:40:00,28.6,24.9,30.08,NW,315,1.3,4.9,86,0.00,,,0.00,WUHU216HW,2013-01-03 23:40:00,
2013-01-03 18:45:00,28.6,25.2,30.08,NW,315,5.4,6.0,87,0.00,,,0.00,WUHU216HW,2013-01-03 23:45:00,
2013-01-03 18:50:00,28.8,25.1,30.08,WNW,293,0.4,6.0,86,0.00,,,0.00,WUHU216HW,2013-01-03 23:50:00,
2013-01-03 18:55:00,28.8,25.1,30.08,West,270,0.7,3.4,86,0.00,,,0.00,WUHU216HW,2013-01-03 23:55:00,
2013-01-03 19:00:00,28.8,25.1,30.09,NNW,338,0.7,4.0,86,0.00,,,0.00,WUHU216HW,2013-01-04 00:00:00,
2013-01-03 19:05:00,28.8,25.1,30.09,West,270,2.2,4.0,86,0.00,,,0.00,WUHU216HW,2013-01-04 00:05:00,
2013-01-03 19:10:00,28.8,25.1,30.09,NNW,338,1.1,3.1,86,0.00,,,0.00,WUHU216HW,2013-01-04 00:10:00,
2013-01-03 19:15:00,29.0,25.3,30.09,WNW,293,0.4,4.0,86,0.00,,,0.00,WUHU216HW,2013-01-04 00:15:00,
2013-01-03 19:20:00,29.0,25.3,30.09,NW,315,1.1,4.3,86,0.00,,,0.00,WUHU216HW,2013-01-04 00:20:00,
2013-01-03 19:25:00,29.0,25.3,30.09,NW,315,0.9,4.3,86,0.00,,,0.00,WUHU216HW,2013-01-04 00:25:00,
2013-01-03 19:30:00,29.0,25.3,30.09,SW,225,0.7,4.7,86,0.00,,,0.00,WUHU216HW,2013-01-04 00:30:00,
2013-01-03 19:35:00,29.0,25.3,30.10,WNW,293,1.8,4.9,86,0.00,,,0.00,WUHU216HW,2013-01-04 00:35:00,
2013-01-03 19:40:00,29.0,25.3,30.10,NNW,338,0.4,4.9,86,0.00,,,0.00,WUHU216HW,2013-01-04 00:40:00,
2013-01-03 19:45:00,29.0,25.0,30.10,NW,315,0.2,4.5,85,0.00,,,0.00,WUHU216HW,2013-01-04 00:45:00,
2013-01-03 19:50:00,29.0,25.0,30.10,West,270,3.6,4.7,85,0.00,,,0.00,WUHU216HW,2013-01-04 00:50:00,
2013-01-03 19:55:00,29.0,25.0,30.10,WNW,293,1.3,4.7,85,0.00,,,0.00,WUHU216HW,2013-01-04 00:55:00,
2013-01-03 20:00:00,29.0,25.0,30.10,West,270,1.8,4.0,85,0.00,,,0.00,WUHU216HW,2013-01-04 01:00:00,
2013-01-03 20:05:00,29.0,25.0,30.10,WNW,293,2.7,3.6,85,0.00,,,0.00,WUHU216HW,2013-01-04 01:05:00,
2013-01-03 20:10:00,28.8,24.8,30.10,NW,315,1.1,3.6,85,0.00,,,0.00,WUHU216HW,2013-01-04 01:10:00,
2013-01-03 20:15:00,29.0,25.0,30.10,WNW,293,2.7,2.7,85,0.00,,,0.00,WUHU216HW,2013-01-04 01:15:00,
2013-01-03 20:20:00,29.0,24.8,30.10,NW,315,0.7,3.6,84,0.00,,,0.00,WUHU216HW,2013-01-04 01:20:00,
2013-01-03 20:25:00,29.0,25.0,30.10,NNW,338,1.8,5.1,85,0.00,,,0.00,WUHU216HW,2013-01-04 01:25:00,
2013-01-03 20:30:00,29.2,24.9,30.10,NNW,338,2.5,5.1,84,0.00,,,0.00,WUHU216HW,2013-01-04 01:30:00,
2013-01-03 20:35:00,29.0,24.8,30.10,NNW,338,2.5,3.6,84,0.00,,,0.00,WUHU216HW,2013-01-04 01:35:00,
2013-01-03 20:40:00,28.8,24.6,30.10,NNE,23,2.5,4.3,84,0.00,,,0.00,WUHU216HW,2013-01-04 01:40:00,
2013-01-03 20:45:00,28.8,24.3,30.10,WNW,293,1.1,4.3,83,0.00,,,0.00,WUHU216HW,2013-01-04 01:45:00,
2013-01-03 20:50:00,28.8,24.6,30.10,NNW,338,1.8,3.6,84,0.00,,,0.00,WUHU216HW,2013-01-04 01:50:00,
2013-01-03 20:55:00,28.8,24.6,30.10,NNW,338,0.7,3.6,84,0.00,,,0.00,WUHU216HW,2013-01-04 01:55:00,
2013-01-03 21:00:00,28.6,24.1,30.10,WNW,293,1.6,3.4,83,0.00,,,0.00,WUHU216HW,2013-01-04 02:00:00,
2013-01-03 21:05:00,28.8,24.6,30.10,NNW,338,1.3,3.4,84,0.00,,,0.00,WUHU216HW,2013-01-04 02:05:00,
2013-01-03 21:10:00,28.6,24.4,30.10,NNW,338,1.8,3.6,84,0.00,,,0.00,WUHU216HW,2013-01-04 02:10:00,
2013-01-03 21:15:00,28.6,24.4,30.10,West,270,1.8,4.5,84,0.00,,,0.00,WUHU216HW,2013-01-04 02:15:00,
2013-01-03 21:21:00,28.4,24.0,30.10,WSW,248,1.1,6.7,83,0.00,,,0.00,WUHU216HW,2013-01-04 02:21:00,
2013-01-03 21:26:00,28.4,24.0,30.10,WNW,293,2.7,6.7,83,0.00,,,0.00,WUHU216HW,2013-01-04 02:26:00,
2013-01-03 21:31:00,28.4,24.0,30.10,NW,315,1.1,5.6,83,0.00,,,0.00,WUHU216HW,2013-01-04 02:31:00,
2013-01-03 21:36:00,28.4,24.0,30.10,WNW,293,3.4,5.6,83,0.00,,,0.00,WUHU216HW,2013-01-04 02:36:00,
2013-01-03 21:41:00,28.3,23.8,30.10,NNW,338,1.8,4.7,83,0.00,,,0.00,WUHU216HW,2013-01-04 02:41:00,
2013-01-03 21:46:00,28.3,23.8,30.10,NNW,338,1.6,7.6,83,0.00,,,0.00,WUHU216HW,2013-01-04 02:46:00,
2013-01-03 21:51:00,28.3,23.8,30.10,NNW,338,2.7,7.6,83,0.00,,,0.00,WUHU216HW,2013-01-04 02:51:00,
2013-01-03 21:56:00,28.3,23.4,30.11,North,0,0.9,4.0,82,0.00,,,0.00,WUHU216HW,2013-01-04 02:56:00,
2013-01-03 22:01:00,28.1,23.0,30.10,North,0,2.9,3.4,81,0.00,,,0.00,WUHU216HW,2013-01-04 03:01:00,
2013-01-03 22:06:00,28.1,23.0,30.10,WNW,293,0.7,4.9,81,0.00,,,0.00,WUHU216HW,2013-01-04 03:06:00,
2013-01-03 22:11:00,28.1,23.0,30.10,SW,225,2.5,4.9,81,0.00,,,0.00,WUHU216HW,2013-01-04 03:11:00,
2013-01-03 22:16:00,28.1,23.0,30.10,WNW,293,2.5,4.5,81,0.00,,,0.00,WUHU216HW,2013-01-04 03:16:00,
2013-01-03 22:21:00,28.1,23.0,30.10,NNW,338,4.0,4.5,81,0.00,,,0.00,WUHU216HW,2013-01-04 03:21:00,
2013-01-03 22:26:00,28.1,23.0,30.10,North,0,0.4,4.0,81,0.00,,,0.00,WUHU216HW,2013-01-04 03:26:00,
2013-01-03 22:31:00,28.1,23.0,30.10,NNW,338,0.4,4.0,81,0.00,,,0.00,WUHU216HW,2013-01-04 03:31:00,
2013-01-03 22:36:00,28.1,23.0,30.10,North,0,1.6,4.0,81,0.00,,,0.00,WUHU216HW,2013-01-04 03:36:00,
2013-01-03 22:41:00,28.1,23.0,30.10,NW,315,1.3,3.6,81,0.00,,,0.00,WUHU216HW,2013-01-04 03:41:00,
2013-01-03 22:46:00,28.1,23.0,30.10,WSW,248,2.2,3.8,81,0.00,,,0.00,WUHU216HW,2013-01-04 03:46:00,
2013-01-03 22:51:00,28.1,23.0,30.10,NNW,338,3.4,4.3,81,0.00,,,0.00,WUHU216HW,2013-01-04 03:51:00,
2013-01-03 22:56:00,28.1,22.7,30.10,NNW,338,0.9,4.3,80,0.00,,,0.00,WUHU216HW,2013-01-04 03:56:00,
2013-01-03 23:01:00,28.1,22.7,30.10,NNW,338,0.7,3.6,80,0.00,,,0.00,WUHU216HW,2013-01-04 04:01:00,
2013-01-03 23:06:00,28.1,22.7,30.10,North,0,0.2,3.6,80,0.00,,,0.00,WUHU216HW,2013-01-04 04:06:00,
2013-01-03 23:11:00,28.1,22.7,30.10,NW,315,0.7,2.7,80,0.00,,,0.00,WUHU216HW,2013-01-04 04:11:00,
2013-01-03 23:16:00,28.1,22.4,30.10,NW,315,2.0,6.3,79,0.00,,,0.00,WUHU216HW,2013-01-04 04:16:00,
2013-01-03 23:21:00,28.1,22.4,30.10,NE,45,2.0,6.3,79,0.00,,,0.00,WUHU216HW,2013-01-04 04:21:00,
2013-01-03 23:26:00,28.3,22.6,30.09,West,270,0.9,3.6,79,0.00,,,0.00,WUHU216HW,2013-01-04 04:26:00,
2013-01-03 23:31:00,28.1,22.7,30.09,NNW,338,0.4,3.6,80,0.00,,,0.00,WUHU216HW,2013-01-04 04:31:00,
2013-01-03 23:36:00,28.1,22.4,30.09,WNW,293,0.2,4.7,79,0.00,,,0.00,WUHU216HW,2013-01-04 04:36:00,
2013-01-03 23:41:00,28.1,22.7,30.09,West,270,0.7,4.7,80,0.00,,,0.00,WUHU216HW,2013-01-04 04:41:00,
2013-01-03 23:46:00,28.1,22.7,30.08,NW,315,0.0,2.5,80,0.00,,,0.00,WUHU216HW,2013-01-04 04:46:00,
2013-01-03 23:51:00,28.1,22.7,30.08,WSW,248,0.2,2.7,80,0.00,,,0.00,WUHU216HW,2013-01-04 04:51:00,
2013-01-03 23:56:00,27.9,22.5,30.08,NW,315,0.4,2.7,80,0.00,,,0.00,WUHU216HW,2013-01-04 04:56:00,